Location: Franzen
(48.6167°N, 15.3833°E)
Time: 07:57:51
(UTC+00:00)

A-11 Canister half - Pass Details

Date: 30 July 2021
Orbit: 1515 x 1685 km, 47.2° (Epoch: 21 September)

Event Time Altitude Azimuth Distance (km) Brightness Sun altitude
Rises 21:45:34 0° 287° (WNW) 4,908 12.2 -20.8°
Reaches altitude 10° 21:48:47 10° 284° (WNW) 3,933 11.5 -21.0°
Maximum altitude 21:58:32 56° 210° (SSW) 1,951 9.2 -21.5°
Enters shadow 22:03:41 31° 149° (SSE) 2,659 9.7 -21.7°
Drops below altitude 10° 22:08:19 10° 136° (SE) 3,930 - -21.9°
Sets 22:11:31 0° 132° (SE) 4,904 - -22.1°
